ITY1412 LIRF-LIMF

Flight info

Callsign ITY1412
Flight time 0h 53m
Altitude 36000
Route XENOL5AXNEMBO7A/25 NEMBO DCT ELB DCT LAGEN LAGEN3R
Aircraft A320/M-SDE3FGHIRWY/LB1

Departure

Time 2026-05-06 08:17
Airport Rome–Fiumicino Leonardo da Vinci International Airport (LIRF)

Arrival

Time 2026-05-06 09:10
Airport Turin Airport (LIMF)
Time Latitude Longitude Altitude Speed Heading
2026-05-06 07:28 41.79721 12.25476 16 ft 0 kts 116°
2026-05-06 08:06 41.79727 12.25459 14 ft 4 kts 118°
2026-05-06 08:06 41.79739 12.25428 16 ft 4 kts 90°
2026-05-06 08:06 41.79736 12.25414 14 ft 1 kts 25°
2026-05-06 08:07 41.79756 12.25426 16 ft 4 kts 23°
2026-05-06 08:07 41.79780 12.25441 14 ft 3 kts 26°
2026-05-06 08:07 41.79783 12.25442 14 ft 1 kts 26°
2026-05-06 08:10 41.79791 12.25448 15 ft 3 kts 25°
2026-05-06 08:10 41.79827 12.25468 14 ft 8 kts 23°
2026-05-06 08:10 41.79890 12.25507 16 ft 11 kts 25°
2026-05-06 08:11 41.79967 12.25555 14 ft 13 kts 25°
2026-05-06 08:11 41.79986 12.25654 14 ft 14 kts 115°
2026-05-06 08:11 41.79942 12.25772 14 ft 15 kts 116°
2026-05-06 08:11 41.79959 12.25877 14 ft 14 kts 23°
2026-05-06 08:12 41.80056 12.25935 14 ft 16 kts 25°
2026-05-06 08:12 41.80153 12.25996 14 ft 15 kts 25°
2026-05-06 08:12 41.80244 12.26053 14 ft 14 kts 25°
2026-05-06 08:12 41.80327 12.26104 14 ft 12 kts 25°
2026-05-06 08:13 41.80399 12.26148 15 ft 10 kts 25°
2026-05-06 08:13 41.80458 12.26177 17 ft 8 kts
2026-05-06 08:13 41.80507 12.26184 16 ft 6 kts 27°
2026-05-06 08:13 41.80528 12.26237 16 ft 8 kts 71°
2026-05-06 08:14 41.80553 12.26327 17 ft 12 kts 69°
2026-05-06 08:14 41.80589 12.26454 16 ft 17 kts 70°
2026-05-06 08:14 41.80631 12.26616 15 ft 20 kts 68°
2026-05-06 08:14 41.80682 12.26797 14 ft 22 kts 70°
2026-05-06 08:15 41.80729 12.26964 13 ft 15 kts 69°
2026-05-06 08:15 41.80801 12.27043 13 ft 15 kts 346°
2026-05-06 08:15 41.80893 12.26999 13 ft 13 kts 340°
2026-05-06 08:15 41.80960 12.26965 13 ft 7 kts 328°
2026-05-06 08:16 41.80951 12.26897 13 ft 15 kts 248°
2026-05-06 08:16 41.80832 12.26476 20 ft 86 kts 250°
2026-05-06 08:16 41.80553 12.25467 18 ft 143 kts 249°
2026-05-06 08:16 41.80173 12.24065 325 ft 161 kts 246°
2026-05-06 08:17 41.79801 12.22672 999 ft 160 kts 244°
2026-05-06 08:17 41.79417 12.21273 1667 ft 161 kts 246°
2026-05-06 08:17 41.79273 12.19696 2095 ft 183 kts 264°
2026-05-06 08:17 41.79252 12.17899 2428 ft 204 kts 263°
2026-05-06 08:18 41.79195 12.15877 2775 ft 230 kts 263°
2026-05-06 08:18 41.79126 12.13632 3270 ft 250 kts 263°
2026-05-06 08:18 41.79061 12.11267 4070 ft 256 kts 264°
2026-05-06 08:18 41.79007 12.08880 5065 ft 257 kts 266°
2026-05-06 08:19 41.78991 12.06486 6045 ft 258 kts 268°
2026-05-06 08:19 41.78993 12.04077 6969 ft 259 kts 268°
2026-05-06 08:19 41.78999 12.01647 7851 ft 262 kts 268°
2026-05-06 08:19 41.79003 11.99198 8747 ft 264 kts 268°
2026-05-06 08:20 41.79005 11.96733 9630 ft 266 kts 268°
2026-05-06 08:20 41.79003 11.94239 10345 ft 275 kts 268°
2026-05-06 08:20 41.78996 11.91569 10607 ft 298 kts 268°
2026-05-06 08:20 41.78987 11.88737 11168 ft 308 kts 268°
2026-05-06 08:21 41.78978 11.85806 11891 ft 313 kts 268°
2026-05-06 08:21 41.78968 11.82911 12624 ft 317 kts 268°
2026-05-06 08:21 41.78958 11.79937 13359 ft 321 kts 268°
2026-05-06 08:21 41.78945 11.76925 14048 ft 326 kts 268°
2026-05-06 08:22 41.78930 11.73869 14705 ft 329 kts 268°
2026-05-06 08:22 41.78915 11.70788 15366 ft 332 kts 268°
2026-05-06 08:22 41.78901 11.67676 16010 ft 336 kts 268°
2026-05-06 08:22 41.78886 11.64528 16644 ft 340 kts 268°
2026-05-06 08:23 41.78870 11.61347 17286 ft 343 kts 268°
2026-05-06 08:23 41.79025 11.58135 17913 ft 349 kts 277°
2026-05-06 08:23 41.79716 11.54986 18487 ft 357 kts 290°
2026-05-06 08:23 41.80958 11.52066 19028 ft 365 kts 303°
2026-05-06 08:24 41.82617 11.49450 19578 ft 370 kts 307°
2026-05-06 08:24 41.84327 11.46853 20144 ft 373 kts 307°
2026-05-06 08:24 41.86049 11.44227 20704 ft 376 kts 307°
2026-05-06 08:24 41.87778 11.41583 21261 ft 379 kts 307°
2026-05-06 08:25 41.89528 11.38907 21801 ft 382 kts 307°
2026-05-06 08:25 41.91287 11.36211 22352 ft 386 kts 307°
2026-05-06 08:25 41.93060 11.33489 22881 ft 389 kts 307°
2026-05-06 08:25 41.94850 11.30741 23414 ft 392 kts 307°
2026-05-06 08:26 41.96653 11.27967 23860 ft 396 kts 307°
2026-05-06 08:26 41.97879 11.26081 24153 ft 397 kts 307°
2026-05-06 08:26 41.99701 11.23276 24583 ft 400 kts 307°
2026-05-06 08:26 42.01537 11.20450 24995 ft 402 kts 306°
2026-05-06 08:27 42.03383 11.17606 25413 ft 405 kts 306°
2026-05-06 08:27 42.05242 11.14741 25810 ft 407 kts 306°
2026-05-06 08:27 42.07110 11.11859 26203 ft 410 kts 306°
2026-05-06 08:27 42.08987 11.08961 26595 ft 412 kts 306°
2026-05-06 08:28 42.10876 11.06039 26971 ft 414 kts 306°
2026-05-06 08:28 42.12772 11.03105 27344 ft 417 kts 306°
2026-05-06 08:28 42.14678 11.00148 27719 ft 419 kts 305°
2026-05-06 08:28 42.16591 10.97176 28086 ft 421 kts 305°
2026-05-06 08:29 42.18517 10.94185 28441 ft 424 kts 305°
2026-05-06 08:29 42.20455 10.91177 28789 ft 426 kts 305°
2026-05-06 08:29 42.22402 10.88150 29134 ft 428 kts 305°
2026-05-06 08:29 42.24357 10.85101 29482 ft 430 kts 305°
2026-05-06 08:30 42.26318 10.82043 29797 ft 433 kts 304°
2026-05-06 08:30 42.28338 10.79002 30099 ft 438 kts 309°
2026-05-06 08:30 42.30704 10.76336 30362 ft 448 kts 320°
2026-05-06 08:30 42.33337 10.74047 30617 ft 452 kts 321°
2026-05-06 08:31 42.35998 10.71763 30866 ft 454 kts 321°
2026-05-06 08:31 42.38669 10.69465 31108 ft 456 kts 321°
2026-05-06 08:31 42.41352 10.67147 31351 ft 458 kts 321°
2026-05-06 08:31 42.44035 10.64825 31665 ft 457 kts 321°
2026-05-06 08:32 42.46715 10.62511 32004 ft 457 kts 321°
2026-05-06 08:32 42.47622 10.61728 32120 ft 456 kts 321°
2026-05-06 08:32 42.54632 10.55659 32988 ft 455 kts 321°
2026-05-06 08:33 42.57297 10.53342 33309 ft 455 kts 321°
2026-05-06 08:33 42.59960 10.51026 33643 ft 454 kts 321°
2026-05-06 08:33 42.62620 10.48711 33965 ft 454 kts 321°
2026-05-06 08:33 42.65269 10.46402 34265 ft 453 kts 321°
2026-05-06 08:34 42.67921 10.44084 34549 ft 452 kts 321°
2026-05-06 08:34 42.73174 10.39428 35115 ft 447 kts 316°
2026-05-06 08:34 42.75596 10.36810 35374 ft 444 kts 314°
2026-05-06 08:35 42.77993 10.34169 35630 ft 443 kts 314°
2026-05-06 08:35 42.80383 10.31526 35850 ft 443 kts 314°
2026-05-06 08:35 42.82773 10.28883 35924 ft 440 kts 314°
2026-05-06 08:36 42.87528 10.23637 35928 ft 435 kts 314°
2026-05-06 08:36 42.92226 10.18434 35926 ft 435 kts 314°
2026-05-06 08:37 42.96912 10.13228 35924 ft 434 kts 314°
2026-05-06 08:37 43.01603 10.08017 35922 ft 434 kts 314°
2026-05-06 08:38 43.06288 10.02805 35931 ft 434 kts 314°
2026-05-06 08:38 43.10967 9.97583 35944 ft 434 kts 313°
2026-05-06 08:39 43.15637 9.92347 35950 ft 433 kts 313°
2026-05-06 08:39 43.20295 9.87112 35951 ft 432 kts 313°
2026-05-06 08:40 43.24943 9.81890 35949 ft 432 kts 313°
2026-05-06 08:40 43.29619 9.76644 35947 ft 431 kts 313°
2026-05-06 08:41 43.34249 9.71427 35948 ft 430 kts 312°
2026-05-06 08:41 43.38860 9.66197 35943 ft 429 kts 312°
2026-05-06 08:42 43.43462 9.60980 35935 ft 429 kts 312°
2026-05-06 08:42 43.48061 9.55770 35927 ft 428 kts 312°
2026-05-06 08:43 43.52661 9.50533 35913 ft 429 kts 312°
2026-05-06 08:43 43.57253 9.45292 35906 ft 429 kts 312°
2026-05-06 08:44 43.61863 9.40031 35897 ft 430 kts 312°
2026-05-06 08:44 43.64173 9.37388 35786 ft 432 kts 312°
2026-05-06 08:44 43.66490 9.34739 35535 ft 432 kts 312°
2026-05-06 08:44 43.68799 9.32104 35145 ft 429 kts 312°
2026-05-06 08:45 43.71094 9.29485 34627 ft 426 kts 311°
2026-05-06 08:45 43.73368 9.26878 34113 ft 424 kts 311°
2026-05-06 08:45 43.75628 9.24276 33560 ft 422 kts 311°
2026-05-06 08:45 43.77872 9.21689 33052 ft 418 kts 311°
2026-05-06 08:46 43.80094 9.19126 32558 ft 415 kts 310°
2026-05-06 08:46 43.82307 9.16571 32055 ft 412 kts 310°
2026-05-06 08:46 43.84499 9.14042 31567 ft 409 kts 310°
2026-05-06 08:46 43.86683 9.11521 31075 ft 407 kts 310°
2026-05-06 08:47 43.88848 9.09015 30601 ft 404 kts 310°
2026-05-06 08:47 43.90996 9.06528 30137 ft 402 kts 310°
2026-05-06 08:47 43.93137 9.04049 29633 ft 399 kts 310°
2026-05-06 08:47 43.95286 9.01558 29180 ft 395 kts 310°
2026-05-06 08:48 43.97381 8.99122 28731 ft 391 kts 310°
2026-05-06 08:48 43.99452 8.96714 28311 ft 387 kts 310°
2026-05-06 08:48 44.01505 8.94325 27876 ft 383 kts 310°
2026-05-06 08:48 44.03542 8.91957 27457 ft 380 kts 310°
2026-05-06 08:49 44.05558 8.89613 27029 ft 377 kts 310°
2026-05-06 08:49 44.07561 8.87286 26601 ft 373 kts 310°
2026-05-06 08:49 44.09544 8.84975 26164 ft 371 kts 310°
2026-05-06 08:49 44.11510 8.82672 25730 ft 368 kts 310°
2026-05-06 08:50 44.13464 8.80376 25279 ft 366 kts 310°
2026-05-06 08:50 44.15404 8.78098 24831 ft 365 kts 310°
2026-05-06 08:50 44.17345 8.75819 24365 ft 364 kts 310°
2026-05-06 08:50 44.19277 8.73551 23904 ft 363 kts 311°
2026-05-06 08:51 44.21206 8.71287 23436 ft 362 kts 311°
2026-05-06 08:51 44.23131 8.69027 22914 ft 361 kts 311°
2026-05-06 08:51 44.25047 8.66779 22462 ft 358 kts 311°
2026-05-06 08:51 44.26949 8.64544 21999 ft 356 kts 311°
2026-05-06 08:52 44.28835 8.62325 21561 ft 354 kts 311°
2026-05-06 08:52 44.30711 8.60112 21123 ft 352 kts 311°
2026-05-06 08:52 44.32579 8.57909 20687 ft 351 kts 312°
2026-05-06 08:52 44.34440 8.55713 20237 ft 349 kts 312°
2026-05-06 08:53 44.36293 8.53523 19820 ft 349 kts 312°
2026-05-06 08:53 44.38140 8.51333 19403 ft 348 kts 313°
2026-05-06 08:53 44.39907 8.49051 18983 ft 343 kts 305°
2026-05-06 08:53 44.41476 8.46556 18567 ft 341 kts 304°
2026-05-06 08:54 44.43039 8.44060 18154 ft 340 kts 304°
2026-05-06 08:54 44.44597 8.41571 17704 ft 339 kts 305°
2026-05-06 08:54 44.46147 8.39103 17309 ft 336 kts 305°
2026-05-06 08:54 44.47687 8.36647 16902 ft 335 kts 305°
2026-05-06 08:55 44.49218 8.34206 16504 ft 333 kts 305°
2026-05-06 08:55 44.52242 8.29377 15739 ft 331 kts 305°
2026-05-06 08:55 44.53751 8.26959 15357 ft 330 kts 305°
2026-05-06 08:56 44.55257 8.24538 14968 ft 328 kts 305°
2026-05-06 08:56 44.56751 8.22139 14592 ft 325 kts 306°
2026-05-06 08:56 44.58238 8.19754 14254 ft 324 kts 306°
2026-05-06 08:56 44.59698 8.17410 14089 ft 315 kts 306°
2026-05-06 08:57 44.61131 8.15107 13664 ft 312 kts 306°
2026-05-06 08:57 44.62546 8.12824 13242 ft 309 kts 306°
2026-05-06 08:57 44.63951 8.10547 12789 ft 306 kts 306°
2026-05-06 08:57 44.65313 8.08340 12618 ft 292 kts 306°
2026-05-06 08:58 44.66618 8.06232 12388 ft 281 kts 306°
2026-05-06 08:58 44.67889 8.04172 12034 ft 277 kts 306°
2026-05-06 08:58 44.69141 8.02147 11775 ft 273 kts 306°
2026-05-06 08:58 44.69979 8.00792 11614 ft 272 kts 306°
2026-05-06 08:59 44.71215 7.98794 11274 ft 270 kts 306°
2026-05-06 08:59 44.72443 7.96805 10911 ft 269 kts 306°
2026-05-06 08:59 44.73668 7.94817 10554 ft 270 kts 306°
2026-05-06 08:59 44.74782 7.92725 10230 ft 263 kts 294°
2026-05-06 09:00 44.75379 7.90323 9891 ft 256 kts 276°
2026-05-06 09:00 44.75411 7.87844 9543 ft 253 kts 259°
2026-05-06 09:00 44.74919 7.85482 9168 ft 251 kts 247°
2026-05-06 09:00 44.74275 7.83193 8791 ft 251 kts 248°
2026-05-06 09:01 44.73650 7.80936 8686 ft 246 kts 248°
2026-05-06 09:01 44.73032 7.78648 8563 ft 247 kts 252°
2026-05-06 09:01 44.72832 7.76290 8434 ft 249 kts 273°
2026-05-06 09:01 44.73290 7.73937 8304 ft 253 kts 295°
2026-05-06 09:02 44.74373 7.71934 8176 ft 257 kts 311°
2026-05-06 09:02 44.75625 7.70129 7914 ft 257 kts 311°
2026-05-06 09:02 44.76869 7.68325 7643 ft 255 kts 311°
2026-05-06 09:02 44.78102 7.66530 7407 ft 256 kts 311°
2026-05-06 09:03 44.79322 7.64756 7279 ft 245 kts 312°
2026-05-06 09:03 44.80634 7.63315 7188 ft 239 kts 331°
2026-05-06 09:03 44.82221 7.62622 7015 ft 241 kts 353°
2026-05-06 09:03 44.83894 7.62658 6761 ft 241 kts
2026-05-06 09:04 44.85561 7.62776 6518 ft 239 kts
2026-05-06 09:04 44.87219 7.62887 6281 ft 238 kts
2026-05-06 09:04 44.88867 7.62992 6065 ft 237 kts
2026-05-06 09:04 44.90508 7.63096 5887 ft 236 kts
2026-05-06 09:05 44.91521 7.63159 5778 ft 236 kts
2026-05-06 09:05 44.93418 7.63278 5571 ft 235 kts
2026-05-06 09:05 44.95052 7.63381 5391 ft 234 kts
2026-05-06 09:05 44.96672 7.63483 5268 ft 234 kts
2026-05-06 09:06 44.98295 7.63585 5003 ft 233 kts
2026-05-06 09:06 44.99907 7.63687 4702 ft 231 kts
2026-05-06 09:06 45.01513 7.63788 4398 ft 230 kts
2026-05-06 09:06 45.03103 7.63889 4092 ft 229 kts
2026-05-06 09:07 45.04686 7.63988 3784 ft 226 kts
2026-05-06 09:07 45.06245 7.64087 3474 ft 220 kts
2026-05-06 09:07 45.07731 7.64181 3192 ft 209 kts
2026-05-06 09:07 45.09154 7.64271 2959 ft 198 kts
2026-05-06 09:08 45.10484 7.64355 2668 ft 185 kts
2026-05-06 09:08 45.11719 7.64433 2423 ft 171 kts
2026-05-06 09:08 45.12868 7.64506 2200 ft 155 kts
2026-05-06 09:08 45.13901 7.64571 1995 ft 144 kts
2026-05-06 09:09 45.14890 7.64634 1795 ft 140 kts
2026-05-06 09:09 45.15853 7.64695 1599 ft 138 kts
2026-05-06 09:09 45.16808 7.64755 1414 ft 137 kts
2026-05-06 09:09 45.17751 7.64815 1224 ft 135 kts
2026-05-06 09:10 45.18686 7.64878 1057 ft 134 kts
2026-05-06 09:10 45.19593 7.64929 982 ft 119 kts
2026-05-06 09:10 45.20201 7.64970 982 ft 61 kts
2026-05-06 09:10 45.20475 7.64989 984 ft 27 kts
2026-05-06 09:11 45.20659 7.64996 983 ft 26 kts
2026-05-06 09:11 45.20823 7.64997 985 ft 18 kts 330°
2026-05-06 09:11 45.20877 7.64872 988 ft 13 kts 278°
2026-05-06 09:11 45.20857 7.64778 987 ft 9 kts 225°
2026-05-06 09:12 45.20792 7.64742 985 ft 11 kts 184°
2026-05-06 09:12 45.20708 7.64736 986 ft 13 kts 182°
2026-05-06 09:12 45.20611 7.64730 986 ft 15 kts 182°
2026-05-06 09:12 45.20500 7.64724 989 ft 17 kts 182°
2026-05-06 09:13 45.20402 7.64716 990 ft 11 kts 183°
2026-05-06 09:13 45.20356 7.64713 986 ft 8 kts 182°
2026-05-06 09:13 45.20282 7.64709 987 ft 13 kts 182°
2026-05-06 09:13 45.20171 7.64702 989 ft 19 kts 182°
2026-05-06 09:14 45.20024 7.64692 990 ft 23 kts 182°
2026-05-06 09:14 45.19851 7.64680 985 ft 25 kts 183°
2026-05-06 09:14 45.19695 7.64695 985 ft 21 kts 184°
2026-05-06 09:14 45.19569 7.64687 986 ft 15 kts 182°
2026-05-06 09:15 45.19485 7.64683 986 ft 9 kts 182°
2026-05-06 09:15 45.19421 7.64679 986 ft 10 kts 182°
2026-05-06 09:15 45.19341 7.64673 986 ft 13 kts 183°
2026-05-06 09:15 45.19270 7.64668 986 ft 7 kts 183°
2026-05-06 09:16 45.19239 7.64638 993 ft 7 kts 249°
2026-05-06 09:16 45.19226 7.64561 986 ft 7 kts 258°
2026-05-06 09:16 45.19223 7.64539 986 ft 0 kts 257°
2026-05-06 09:16 45.19222 7.64534 986 ft 0 kts 257°